SWR136 LSZH-VHHH

Flight info

Callsign SWR136
Flight time N/A
Altitude 29000
Route DEGES Z2 UMVEG DCT DIMLO DCT INVED DCT SOKRU DCT DINRO DCT UDROS DCT ABSAX DCT KARDE/N0493F310 DCT REBLO M11 RODAR A909 ABDAN A846 RANAH L750 VELDT/N0498F330 L750 MERUN G452 LKN A201 LSO/N0495F350 A599 LINSO/K0915S1070 A599 POU R473 SIERA
Aircraft B77W/H-SDE1E2E3FGHIJ2J3J4J5M1RWXY/LB1D1

Departure

Time 2026-04-25 22:06
Airport Zürich Airport (LSZH)

Arrival

Time N/A
Airport Hong Kong International Airport (VHHH)
Time Latitude Longitude Altitude Speed Heading
2026-04-25 21:23 47.46058 8.55433 1408 ft 0 kts
2026-04-25 21:25 47.46057 8.55433 1403 ft 0 kts
2026-04-25 21:59 47.46037 8.55430 1383 ft 4 kts
2026-04-25 21:59 47.46010 8.55426 1409 ft 4 kts
2026-04-25 21:59 47.45987 8.55422 1410 ft 4 kts 27°
2026-04-25 22:00 47.45975 8.55357 1407 ft 4 kts 96°
2026-04-25 22:00 47.45977 8.55328 1407 ft 0 kts 96°
2026-04-25 22:02 47.45977 8.55334 1406 ft 4 kts 96°
2026-04-25 22:02 47.45970 8.55428 1407 ft 10 kts 96°
2026-04-25 22:02 47.45963 8.55526 1413 ft 10 kts 95°
2026-04-25 22:03 47.45956 8.55634 1406 ft 13 kts 96°
2026-04-25 22:03 47.45944 8.55802 1409 ft 18 kts 96°
2026-04-25 22:03 47.45935 8.55922 1417 ft 18 kts 96°
2026-04-25 22:03 47.45920 8.56151 1420 ft 15 kts 95°
2026-04-25 22:04 47.45914 8.56237 1416 ft 12 kts 92°
2026-04-25 22:04 47.45955 8.56306 1422 ft 9 kts 21°
2026-04-25 22:04 47.46032 8.56327 1420 ft 11 kts
2026-04-25 22:04 47.46098 8.56378 1422 ft 11 kts 39°
2026-04-25 22:05 47.46133 8.56420 1419 ft 5 kts 21°
2026-04-25 22:05 47.46162 8.56404 1416 ft 4 kts 316°
2026-04-25 22:05 47.46166 8.56398 1416 ft 0 kts 317°
2026-04-25 22:05 47.46195 8.56357 1418 ft 27 kts 316°
2026-04-25 22:06 47.46550 8.55871 1406 ft 111 kts 317°
2026-04-25 22:06 47.47312 8.54834 1403 ft 185 kts 317°
2026-04-25 22:06 47.48306 8.53468 2061 ft 195 kts 317°
2026-04-25 22:06 47.49341 8.52166 2960 ft 198 kts 326°
2026-04-25 22:07 47.50530 8.51018 3171 ft 210 kts 332°
2026-04-25 22:07 47.51383 8.50306 3421 ft 214 kts 333°
2026-04-25 22:07 47.52935 8.48424 3889 ft 223 kts 305°
2026-04-25 22:07 47.53527 8.46300 4318 ft 227 kts 279°
2026-04-25 22:08 47.53451 8.43971 4729 ft 231 kts 253°
2026-04-25 22:08 47.52825 8.41773 5004 ft 236 kts 243°
2026-04-25 22:08 47.52114 8.39578 5503 ft 234 kts 243°
2026-04-25 22:08 47.51166 8.37718 6066 ft 228 kts 214°
2026-04-25 22:09 47.49688 8.36950 6465 ft 229 kts 182°
2026-04-25 22:09 47.48142 8.37428 6757 ft 235 kts 152°
2026-04-25 22:09 47.46881 8.39041 6969 ft 246 kts 121°
2026-04-25 22:09 47.46368 8.41488 7087 ft 257 kts 95°
2026-04-25 22:10 47.46203 8.44149 7383 ft 268 kts 94°
2026-04-25 22:10 47.46047 8.46926 7793 ft 274 kts 94°
2026-04-25 22:10 47.45888 8.49765 8225 ft 282 kts 94°
2026-04-25 22:10 47.45720 8.52713 8564 ft 292 kts 94°
2026-04-25 22:11 47.45542 8.55750 9036 ft 300 kts 94°
2026-04-25 22:11 47.45356 8.58834 9594 ft 303 kts 94°
2026-04-25 22:11 47.45164 8.61943 10193 ft 305 kts 94°
2026-04-25 22:11 47.44966 8.65114 10577 ft 316 kts 94°
2026-04-25 22:12 47.44755 8.68449 10706 ft 335 kts 94°
2026-04-25 22:12 47.44530 8.71967 10871 ft 353 kts 94°
2026-04-25 22:12 47.44290 8.75676 11034 ft 371 kts 94°
2026-04-25 22:12 47.44125 8.78214 11284 ft 379 kts 94°
2026-04-25 22:13 47.43780 8.83470 11953 ft 389 kts 94°
2026-04-25 22:13 47.43518 8.87419 12588 ft 392 kts 94°
2026-04-25 22:13 47.43251 8.91434 13271 ft 394 kts 94°
2026-04-25 22:13 47.42981 8.95476 13944 ft 397 kts 94°
2026-04-25 22:14 47.42708 8.99543 14515 ft 400 kts 94°
2026-04-25 22:14 47.42431 9.03658 15068 ft 404 kts 94°
2026-04-25 22:14 47.42151 9.07799 15633 ft 407 kts 94°
2026-04-25 22:14 47.41866 9.11982 16201 ft 411 kts 94°
2026-04-25 22:15 47.41597 9.16198 16772 ft 414 kts 91°
2026-04-25 22:15 47.41608 9.20443 17320 ft 415 kts 84°
2026-04-25 22:15 47.41930 9.24682 17903 ft 416 kts 77°
2026-04-25 22:16 47.43206 9.33046 18927 ft 421 kts 74°
2026-04-25 22:16 47.43868 9.37278 19380 ft 424 kts 75°
2026-04-25 22:16 47.44523 9.41536 19861 ft 427 kts 75°
2026-04-25 22:16 47.45174 9.45834 20320 ft 430 kts 74°
2026-04-25 22:17 47.45825 9.50175 20784 ft 434 kts 74°
2026-04-25 22:17 47.46477 9.54550 21230 ft 437 kts 75°
2026-04-25 22:17 47.46970 9.59017 21662 ft 444 kts 81°
2026-04-25 22:17 47.47128 9.63597 22088 ft 449 kts 87°
2026-04-25 22:18 47.46945 9.68238 22530 ft 454 kts 91°
2026-04-25 22:18 47.46660 9.72906 22913 ft 458 kts 91°
2026-04-25 22:18 47.46369 9.77611 23285 ft 462 kts 91°
2026-04-25 22:18 47.46082 9.82371 23674 ft 466 kts 91°
2026-04-25 22:19 47.45801 9.87147 24022 ft 469 kts 91°
2026-04-25 22:19 47.45525 9.91956 24381 ft 471 kts 91°
2026-04-25 22:19 47.45253 9.96733 24711 ft 473 kts 91°
2026-04-25 22:19 47.44975 10.01592 25087 ft 475 kts 91°
2026-04-25 22:20 47.44695 10.06465 25473 ft 476 kts 91°
2026-04-25 22:20 47.44410 10.11348 25871 ft 477 kts 91°
2026-04-25 22:20 47.44122 10.16242 26186 ft 480 kts 92°
2026-04-25 22:20 47.43717 10.21159 26461 ft 485 kts 97°
2026-04-25 22:21 47.43073 10.26064 26768 ft 488 kts 98°
2026-04-25 22:21 47.42362 10.30983 27058 ft 491 kts 99°
2026-04-25 22:21 47.41649 10.35929 27371 ft 493 kts 99°
2026-04-25 22:21 47.40959 10.40895 27670 ft 494 kts 98°
2026-04-25 22:22 47.40280 10.45887 27980 ft 496 kts 98°
2026-04-25 22:22 47.39603 10.50884 28294 ft 497 kts 98°
2026-04-25 22:22 47.38916 10.55898 28556 ft 500 kts 98°
2026-04-25 22:22 47.38221 10.60928 28805 ft 502 kts 98°
2026-04-25 22:23 47.37517 10.65986 29037 ft 504 kts 99°
2026-04-25 22:23 47.36094 10.76199 29174 ft 512 kts 99°
2026-04-25 22:24 47.34641 10.86548 29199 ft 516 kts 99°
2026-04-25 22:24 47.33196 10.96827 29170 ft 514 kts 99°
2026-04-25 22:25 47.31722 11.07127 29146 ft 512 kts 99°
2026-04-25 22:25 47.30250 11.17378 29122 ft 511 kts 99°
2026-04-25 22:26 47.28776 11.27613 29138 ft 510 kts 99°
2026-04-25 22:26 47.27295 11.37839 29125 ft 509 kts 99°
2026-04-25 22:27 47.25806 11.48036 29141 ft 510 kts 99°
2026-04-25 22:27 47.24546 11.58293 29135 ft 509 kts 96°
2026-04-25 22:28 47.23485 11.68541 29142 ft 510 kts 96°
2026-04-25 22:28 47.22386 11.78850 29126 ft 510 kts 96°
2026-04-25 22:29 47.21261 11.89148 29127 ft 510 kts 96°
2026-04-25 22:29 47.20209 11.99442 29130 ft 509 kts 95°
2026-04-25 22:30 47.18731 12.14922 29138 ft 508 kts 95°
2026-04-25 22:30 47.17897 12.23471 29122 ft 508 kts 95°
2026-04-25 22:31 47.16701 12.35496 29121 ft 508 kts 95°
2026-04-25 22:31 47.15670 12.45718 29429 ft 509 kts 95°
2026-04-25 22:32 47.15150 12.50841 29886 ft 505 kts 95°
2026-04-25 22:32 47.14629 12.55933 30263 ft 503 kts 95°
2026-04-25 22:32 47.14101 12.61077 30525 ft 502 kts 96°
2026-04-25 22:32 47.13579 12.66151 30717 ft 503 kts 96°
2026-04-25 22:33 47.13062 12.71165 30904 ft 504 kts 96°
2026-04-25 22:33 47.12536 12.76246 31028 ft 505 kts 96°
2026-04-25 22:33 47.11467 12.86459 31094 ft 505 kts 96°
2026-04-25 22:34 47.10399 12.96600 31123 ft 500 kts 96°
2026-04-25 22:34 47.09327 13.06670 31115 ft 498 kts 96°
2026-04-25 22:35 47.08250 13.16716 31099 ft 498 kts 96°
2026-04-25 22:35 47.07164 13.26748 31115 ft 499 kts 96°
2026-04-25 22:36 47.06068 13.36823 31110 ft 501 kts 96°
2026-04-25 22:36 47.04955 13.46910 31096 ft 502 kts 96°
2026-04-25 22:37 47.03835 13.57019 31081 ft 503 kts 96°
2026-04-25 22:37 47.02706 13.67130 31104 ft 502 kts 96°
2026-04-25 22:38 47.01567 13.77234 31080 ft 502 kts 96°
2026-04-25 22:38 47.00429 13.87236 31081 ft 500 kts 96°
2026-04-25 22:39 46.99277 13.97281 31077 ft 500 kts 96°
2026-04-25 22:39 46.98120 14.07298 31087 ft 498 kts 97°
2026-04-25 22:40 46.96953 14.17310 31075 ft 498 kts 97°
2026-04-25 22:40 46.95780 14.27301 31065 ft 498 kts 97°
2026-04-25 22:41 46.94599 14.37284 31065 ft 498 kts 97°
2026-04-25 22:41 46.93411 14.47253 31078 ft 498 kts 97°
2026-04-25 22:42 46.92211 14.57243 31059 ft 499 kts 98°
2026-04-25 22:42 46.91000 14.67258 31069 ft 501 kts 98°
2026-04-25 22:43 46.89773 14.77301 31048 ft 502 kts 98°
2026-04-25 22:43 46.88537 14.87358 31048 ft 503 kts 99°
2026-04-25 22:44 46.87288 14.97442 31049 ft 505 kts 99°
2026-04-25 22:44 46.86023 15.07570 31041 ft 507 kts 99°
2026-04-25 22:45 46.84754 15.17661 31033 ft 509 kts 99°
2026-04-25 22:45 46.83467 15.27830 31012 ft 510 kts 101°
2026-04-25 22:46 46.82164 15.38038 31027 ft 512 kts 101°
2026-04-25 22:46 46.80846 15.48275 31026 ft 514 kts 101°
2026-04-25 22:47 46.79516 15.58546 31021 ft 516 kts 101°
2026-04-25 22:47 46.78173 15.68842 31002 ft 517 kts 102°
2026-04-25 22:48 46.76815 15.79168 31014 ft 519 kts 102°
2026-04-25 22:48 46.75674 15.87784 31019 ft 521 kts 102°
2026-04-25 22:49 46.74290 15.98168 31009 ft 522 kts 102°
2026-04-25 22:49 46.72896 16.08563 31007 ft 523 kts 102°
2026-04-25 22:50 46.71491 16.18953 31001 ft 522 kts 102°
2026-04-25 22:50 46.70079 16.29331 30998 ft 521 kts 102°
2026-04-25 22:51 46.68662 16.39676 30997 ft 520 kts 102°
2026-04-25 22:51 46.67333 16.49965 31008 ft 519 kts 99°
2026-04-25 22:52 46.66177 16.60327 30996 ft 518 kts 99°
2026-04-25 22:52 46.65030 16.70657 30996 ft 516 kts 99°
2026-04-25 22:53 46.63845 16.80969 30995 ft 516 kts 99°
2026-04-25 22:53 46.62634 16.91275 30986 ft 518 kts 100°
2026-04-25 22:54 46.61402 17.01634 31004 ft 521 kts 100°
2026-04-25 22:54 46.60154 17.12069 30996 ft 525 kts 101°
2026-04-25 22:55 46.58893 17.22547 30990 ft 527 kts 101°
2026-04-25 22:55 46.57617 17.33059 31004 ft 529 kts 101°
2026-04-25 22:56 46.56325 17.43619 30992 ft 531 kts 101°
2026-04-25 22:56 46.55029 17.54130 30989 ft 532 kts 101°
2026-04-25 22:57 46.53716 17.64696 30985 ft 531 kts 101°
2026-04-25 22:57 46.52395 17.75244 30987 ft 531 kts 101°
2026-04-25 22:58 46.51065 17.85776 30991 ft 530 kts 101°
2026-04-25 22:58 46.49727 17.96293 30987 ft 529 kts 101°
2026-04-25 22:59 46.48380 18.06801 30985 ft 529 kts 101°
2026-04-25 22:59 46.47023 18.17297 30992 ft 530 kts 101°
2026-04-25 23:00 46.45654 18.27816 30990 ft 531 kts 101°
2026-04-25 23:00 46.44274 18.38337 31001 ft 531 kts 102°
2026-04-25 23:01 46.42883 18.48870 30986 ft 532 kts 101°
2026-04-25 23:01 46.41479 18.59413 30991 ft 533 kts 102°
2026-04-25 23:02 46.40063 18.69966 30984 ft 533 kts 102°
2026-04-25 23:02 46.38640 18.80505 30980 ft 533 kts 102°
2026-04-25 23:03 46.37213 18.90986 30981 ft 533 kts 102°
2026-04-25 23:03 46.35771 19.01511 30976 ft 532 kts 102°
2026-04-25 23:04 46.34320 19.12015 30980 ft 532 kts 102°
2026-04-25 23:04 46.32861 19.22506 30976 ft 532 kts 102°
2026-04-25 23:05 46.31394 19.32987 30980 ft 531 kts 102°
2026-04-25 23:05 46.29917 19.43458 30977 ft 532 kts 102°
2026-04-25 23:06 46.28430 19.53927 30979 ft 532 kts 102°
2026-04-25 23:06 46.26942 19.64334 30979 ft 532 kts 102°
2026-04-25 23:07 46.25435 19.74796 30980 ft 532 kts 102°
2026-04-25 23:07 46.23920 19.85247 30981 ft 532 kts 102°
2026-04-25 23:08 46.22395 19.95697 30978 ft 532 kts 102°
2026-04-25 23:08 46.20860 20.06139 30974 ft 532 kts 102°
2026-04-25 23:09 46.19317 20.16576 30975 ft 532 kts 102°
2026-04-25 23:09 46.17762 20.27014 30976 ft 532 kts 102°
2026-04-25 23:10 46.16198 20.37458 30974 ft 532 kts 102°
2026-04-25 23:10 46.14268 20.47752 30992 ft 531 kts 108°
2026-04-25 23:11 46.12072 20.57920 30973 ft 531 kts 108°
2026-04-25 23:11 46.09872 20.68088 30982 ft 531 kts 108°
2026-04-25 23:12 46.07704 20.78188 30981 ft 531 kts 108°
2026-04-25 23:12 46.05524 20.88352 30976 ft 531 kts 108°
2026-04-25 23:13 46.03336 20.98505 30976 ft 531 kts 108°
2026-04-25 23:13 46.01136 21.08654 30976 ft 531 kts 108°
2026-04-25 23:14 45.98927 21.18790 30976 ft 531 kts 108°
2026-04-25 23:14 45.96709 21.28921 30993 ft 531 kts 108°
2026-04-25 23:15 45.94481 21.39043 30995 ft 531 kts 108°